[[{"header":{"parameterUnit":"m.s-1","parameterCategory":2,"la1":30.2991,"la2":30.254,"lo1":-89.0895,"lo2":-89.0444,"dy":0.0017,"dx":0.0017,"nx":28,"ny":28,"refTime":"2023-08-04T03:00:00:Z","depth":"0","parameterNumber":2,"parameterNumberName":"U-component_of_CURRENTS"},"data":[0,0,0,0,0,0,0,0,0,0,0,0,0,0,0,0,0,0,0,0,0,0,0,0,0,0,0,0,0,0,0,0,0,0,0,0,0,0,0,0,0,0,0,0,0,0,0,0,0,0,0,0,0,0,0,0,0,0,-0.208,-0.2081,0,-0.2139,-0.2139,-0.2139,-0.212,-0.2119,-0.2119,-0.2118,-0.2054,-0.2053,-0.2052,0,0,0,0,0,0,0,0,0,0,0,0,0,-0.1909,-0.1912,-0.208,-0.2081,-0.2083,-0.2139,-0.2139,-0.2139,-0.212,-0.2119,-0.2118,-0.2118,-0.2054,-0.2053,-0.2052,0,0,0,0,0,0,0,0,0,0,0,0,0,-0.197,-0.1913,-0.2079,-0.2086,-0.2087,-0.2139,-0.2139,-0.2139,-0.212,-0.2119,-0.2118,-0.2117,-0.2055,-0.2053,-0.2051,-0.2057,0,0,-0.2046,-0.2045,0,0,0,0,0,0,0,0,-0.1966,-0.1975,-0.2083,-0.2085,-0.2087,-0.2128,-0.2056,-0.2108,-0.212,-0.2099,-0.2118,-0.2117,-0.2073,-0.207,-0.2073,-0.2054,-0.2051,-0.2046,-0.2045,-0.2044,-0.2043,0,0,0,0,0,0,0,-0.1962,-0.1972,-0.2095,-0.2085,-0.2088,-0.2072,-0.2079,-0.2065,-0.2082,-0.2101,-0.2102,-0.2121,-0.2072,-0.2075,-0.2071,-0.205,-0.2046,-0.2044,-0.2043,-0.2042,-0.1992,-0.1991,0,0,0,0,0,0,-0.1975,-0.1969,-0.2093,-0.2098,-0.2032,-0.2076,-0.2084,-0.2109,-0.2085,-0.2083,-0.2122,-0.212,-0.2079,-0.2074,-0.2069,-0.2057,-0.2044,-0.2042,-0.2041,-0.1992,-0.1991,-0.1991,0,0,0,0,0,0,-0.1971,-0.1985,-0.2091,-0.204,-0.2053,-0.2081,-0.2109,-0.2111,-0.2113,-0.2103,-0.2097,-0.2122,-0.2078,-0.2071,-0.2055,-0.2055,-0.2041,-0.204,-0.1992,-0.1992,-0.1991,-0.2044,0,0,0,0,0,0,-0.1966,-0.1984,-0.1983,-0.2041,-0.2057,-0.2116,-0.2111,-0.2113,-0.213,-0.2128,-0.2102,-0.2095,-0.2077,-0.2058,-0.2053,-0.2052,-0.2038,-0.1993,-0.1992,-0.1991,-0.2042,-0.2045,-0.2047,0,0,0,0,0,-0.1959,-0.1968,-0.1983,-0.1997,-0.2064,-0.2117,-0.2122,-0.2133,-0.2131,-0.213,-0.2115,-0.2096,-0.205,-0.2057,-0.2051,-0.205,-0.1993,-0.1992,-0.1992,-0.2041,-0.2044,-0.2047,0,0,0,0,0,0,-0.1899,-0.1969,-0.1986,-0.2017,-0.2063,-0.2116,-0.2119,-0.2136,-0.2127,-0.212,-0.21,-0.2093,-0.2077,-0.2055,-0.2062,-0.203,-0.2015,-0.2013,-0.2054,-0.2057,-0.206,-0.2069,-0.2037,0,0,0,0,0,-0.1889,-0.1904,-0.1982,-0.2001,-0.203,-0.2075,-0.2092,-0.2113,-0.2129,-0.2125,-0.2109,-0.2087,-0.2072,-0.2058,-0.2038,-0.2027,-0.2024,-0.2018,-0.202,-0.2023,-0.2025,-0.2017,-0.202,-0.1989,-0.1989,-0.1989,0,0,-0.1872,-0.1911,-0.192,-0.1987,-0.2022,-0.207,-0.208,-0.2119,-0.2141,-0.2118,-0.2114,-0.2097,-0.2071,-0.2058,-0.2047,-0.2038,-0.2035,-0.2022,-0.2025,-0.2026,-0.2017,-0.202,-0.2023,-0.1989,-0.1989,-0.1989,0,0,-0.1864,-0.1887,-0.1909,-0.1954,-0.2021,-0.2052,-0.2068,-0.2126,-0.2126,-0.2137,-0.2123,-0.2112,-0.2083,-0.2072,-0.2061,-0.2065,-0.2051,-0.2048,-0.2069,-0.2062,-0.2065,-0.2067,-0.2094,-0.2099,-0.2047,-0.2047,-0.2047,0,-0.1842,-0.1892,-0.1921,-0.1971,-0.2012,-0.205,-0.2103,-0.2112,-0.2147,-0.2154,-0.2134,-0.2117,-0.2092,-0.2093,-0.2088,-0.2073,-0.2074,-0.2064,-0.2067,-0.2069,-0.2071,-0.2098,-0.2102,-0.205,-0.2049,-0.2049,-0.2049,0,-0.1875,-0.1911,-0.1932,-0.2003,-0.2041,-0.209,-0.214,-0.2151,-0.2156,-0.2173,-0.217,-0.2144,-0.2134,-0.2121,-0.2103,-0.2104,-0.2104,-0.2077,-0.2066,-0.2078,-0.2105,-0.2109,-0.2053,-0.2052,-0.2052,-0.2051,0,0,-0.1852,-0.1938,-0.1947,-0.1988,-0.207,-0.2112,-0.2142,-0.2192,-0.2212,-0.2208,-0.2231,-0.2198,-0.2187,-0.2174,-0.2151,-0.2139,-0.2158,-0.2111,-0.2109,-0.2151,-0.2167,-0.2187,-0.2193,-0.2128,-0.2128,-0.2128,-0.2193,0,-0.1877,-0.1954,-0.1997,-0.207,-0.2123,-0.217,-0.2196,-0.2235,-0.2246,-0.2264,-0.2244,-0.2244,-0.2205,-0.22,-0.2185,-0.2166,-0.2164,-0.2145,-0.2137,-0.2138,-0.2164,-0.2196,-0.2165,-0.222,-0.2196,-0.2196,-0.2197,0,-0.1912,-0.1958,-0.2029,-0.2114,-0.2144,-0.2182,-0.2245,-0.2278,-0.2307,-0.2313,-0.2316,-0.2303,-0.2299,-0.2249,-0.2236,-0.2224,-0.2197,-0.2178,-0.218,-0.218,-0.2163,-0.2197,-0.2227,-0.1976,-0.2202,-0.2202,-0.2201,0,-0.1883,-0.1985,-0.2031,-0.2067,-0.2162,-0.2192,-0.2237,-0.2285,-0.2312,-0.2342,-0.2361,-0.2357,-0.2355,-0.232,-0.2282,-0.2257,-0.2269,-0.2232,-0.2234,-0.2236,-0.2199,-0.2198,-0.1995,-0.2215,-0.2215,-0.2215,-0.2215,0,-0.1898,-0.1941,-0.2018,-0.2047,-0.2101,-0.2181,-0.2232,-0.2269,-0.2327,-0.2367,-0.2375,-0.2401,-0.2363,-0.2365,-0.2319,-0.2306,-0.2302,-0.2254,-0.2252,-0.2219,-0.2219,-0.1989,-0.1926,-0.2217,-0.2217,-0.2216,-0.2216,0,-0.1861,-0.1914,-0.197,-0.2058,-0.2084,-0.2121,-0.2221,-0.2263,-0.232,-0.2373,-0.2384,-0.2437,-0.2441,-0.2414,-0.2381,-0.2364,-0.2277,-0.2327,-0.2314,-0.2309,-0.208,-0.2025,-0.2067,-0.2018,-0.2356,-0.2357,-0.2358,0,-0.1858,-0.1872,-0.1945,-0.1974,-0.2013,-0.2082,-0.2132,-0.2227,-0.2283,-0.2394,-0.2422,-0.2458,-0.246,-0.2461,-0.2451,-0.2419,-0.2279,-0.2372,-0.2309,-0.2071,-0.2008,-0.2068,-0.2027,-0.2294,-0.2294,-0.2294,-0.2294,0,-0.183,-0.1833,-0.1861,-0.1909,-0.1964,-0.2036,-0.2121,-0.2162,-0.2285,-0.2339,-0.2413,-0.2425,-0.2473,-0.2454,-0.2446,-0.2409,-0.2271,-0.2374,-0.2109,-0.1937,-0.201,-0.1959,-0.2264,-0.2295,-0.2295,-0.2295,-0.2295,-0.2295,-0.1785,-0.1773,-0.1789,-0.1834,-0.1901,-0.1968,-0.198,-0.2097,-0.2164,-0.2229,-0.2336,-0.2339,-0.2381,-0.2376,-0.2315,-0.2151,-0.227,-0.204,-0.2001,-0.2088,-0.2012,-0.2345,-0.2376,-0.2376,-0.2377,-0.2377,-0.2377,0,-0.1731,-0.1705,-0.1728,-0.1765,-0.1804,-0.1866,-0.1952,-0.195,-0.1992,-0.212,-0.2161,-0.2185,-0.2095,-0.2038,-0.1929,-0.1768,-0.179,-0.1638,-0.1622,-0.16,-0.1837,-0.1788,-0.1713,-0.1713,-0.1713,-0.1714,-0.1714,-0.1714,-0.1694,-0.1656,-0.1649,-0.1653,-0.1682,-0.1666,-0.168,-0.1692,-0.1759,-0.1802,-0.1855,-0.189,-0.167,-0.1548,-0.1251,-0.1241,-0.1106,-0.1228,-0.114,-0.1131,-0.1161,-0.1189,-0.1115,-0.0901,-0.0901,-0.0915,-0.0914,-0.0913]},{"header":{"parameterUnit":"m.s-1","parameterCategory":2,"la1":30.2991,"la2":30.254,"lo1":-89.0895,"lo2":-89.0444,"dy":0.0017,"dx":0.0017,"nx":28,"ny":28,"refTime":"2023-08-04T03:00:00:Z","depth":"0","parameterNumber":3,"parameterNumberName":"V-component_of_CURRENTS"},"data":[0,0,0,0,0,0,0,0,0,0,0,0,0,0,0,0,0,0,0,0,0,0,0,0,0,0,0,0,0,0,0,0,0,0,0,0,0,0,0,0,0,0,0,0,0,0,0,0,0,0,0,0,0,0,0,0,0,0,-0.1245,-0.1243,0,-0.1088,-0.1086,-0.1085,-0.111,-0.1113,-0.1115,-0.1118,-0.0886,-0.0877,-0.0869,0,0,0,0,0,0,0,0,0,0,0,0,0,-0.1463,-0.146,-0.1245,-0.1243,-0.1241,-0.1088,-0.1086,-0.1084,-0.111,-0.1113,-0.1116,-0.1119,-0.0888,-0.0878,-0.0868,0,0,0,0,0,0,0,0,0,0,0,0,0,-0.1345,-0.1458,-0.1246,-0.1234,-0.1232,-0.1088,-0.1086,-0.1084,-0.1109,-0.1113,-0.1117,-0.1121,-0.0892,-0.0879,-0.0867,-0.071,0,0,-0.0827,-0.0822,0,0,0,0,0,0,0,0,-0.1352,-0.1337,-0.1238,-0.1235,-0.1232,-0.1121,-0.1077,-0.0954,-0.1108,-0.1157,-0.1118,-0.1122,-0.0953,-0.0936,-0.0901,-0.0699,-0.0689,-0.0826,-0.0818,-0.0813,-0.0809,0,0,0,0,0,0,0,-0.136,-0.1344,-0.1185,-0.1236,-0.1231,-0.1201,-0.1189,-0.1054,-0.1036,-0.1153,-0.1155,-0.1133,-0.0952,-0.0914,-0.0896,-0.0686,-0.0827,-0.0815,-0.0807,-0.0802,-0.0385,-0.0382,0,0,0,0,0,0,-0.1376,-0.1351,-0.119,-0.118,-0.1301,-0.1194,-0.1181,-0.1154,-0.1039,-0.1025,-0.113,-0.1135,-0.0934,-0.0911,-0.0887,-0.0778,-0.0813,-0.0801,-0.0793,-0.0388,-0.0384,-0.038,0,0,0,0,0,0,-0.1382,-0.1363,-0.1196,-0.1262,-0.1238,-0.1187,-0.1155,-0.1149,-0.1118,-0.1021,-0.1008,-0.1107,-0.0936,-0.0905,-0.0783,-0.0766,-0.0795,-0.0783,-0.0392,-0.0387,-0.0382,-0.0504,0,0,0,0,0,0,-0.1388,-0.1366,-0.1342,-0.1262,-0.1235,-0.1115,-0.1151,-0.1143,-0.1097,-0.1103,-0.0995,-0.0979,-0.0936,-0.0803,-0.077,-0.0749,-0.0773,-0.0396,-0.039,-0.0384,-0.0505,-0.0504,-0.0504,0,0,0,0,0,-0.1397,-0.1356,-0.1342,-0.1322,-0.1207,-0.1112,-0.1095,-0.1073,-0.1093,-0.1063,-0.1006,-0.0982,-0.074,-0.0789,-0.0752,-0.0727,-0.0399,-0.0392,-0.0384,-0.0505,-0.0504,-0.0504,0,0,0,0,0,0,-0.1427,-0.1351,-0.1336,-0.1271,-0.1198,-0.1117,-0.1083,-0.1059,-0.0987,-0.0997,-0.0929,-0.0904,-0.0796,-0.0713,-0.0769,-0.058,-0.0566,-0.0551,-0.067,-0.0668,-0.0668,-0.0724,-0.0763,0,0,0,0,0,-0.142,-0.1381,-0.1294,-0.124,-0.1208,-0.114,-0.1097,-0.1075,-0.1003,-0.0979,-0.0905,-0.0813,-0.0723,-0.0667,-0.0565,-0.0438,-0.0424,-0.0393,-0.0393,-0.0394,-0.0407,-0.0375,-0.0376,-0.0355,-0.0355,-0.0356,0,0,-0.1413,-0.1368,-0.1342,-0.1245,-0.1194,-0.1141,-0.1125,-0.1057,-0.1025,-0.0953,-0.0881,-0.0799,-0.0686,-0.0585,-0.0525,-0.0522,-0.0391,-0.0384,-0.0387,-0.04,-0.0368,-0.0371,-0.0374,-0.035,-0.0351,-0.0352,0,0,-0.1392,-0.1342,-0.131,-0.1254,-0.1172,-0.1128,-0.1108,-0.1016,-0.0995,-0.0888,-0.0855,-0.0775,-0.0597,-0.0554,-0.0501,-0.0412,-0.0392,-0.0354,-0.0398,-0.0367,-0.0372,-0.0375,-0.0388,-0.0391,-0.0354,-0.0355,-0.0355,0,-0.1391,-0.1339,-0.1279,-0.1238,-0.1205,-0.113,-0.1093,-0.1036,-0.0919,-0.0905,-0.0879,-0.0686,-0.0597,-0.0516,-0.0502,-0.0422,-0.041,-0.0432,-0.0379,-0.0381,-0.0383,-0.0394,-0.0397,-0.036,-0.0359,-0.0359,-0.0358,0,-0.1351,-0.1311,-0.1284,-0.1226,-0.1175,-0.1122,-0.1051,-0.1007,-0.0966,-0.0918,-0.0823,-0.0702,-0.0606,-0.0552,-0.05,-0.045,-0.0443,-0.0398,-0.0413,-0.0395,-0.0405,-0.0406,-0.0367,-0.0365,-0.0363,-0.0362,0,0,-0.1358,-0.1277,-0.1272,-0.1265,-0.1172,-0.1136,-0.1089,-0.1034,-0.1035,-0.0912,-0.0894,-0.0743,-0.0697,-0.063,-0.0547,-0.0512,-0.0522,-0.0464,-0.046,-0.0536,-0.0489,-0.0656,-0.0672,-0.0476,-0.0476,-0.0476,-0.0506,0,-0.1352,-0.1311,-0.126,-0.1228,-0.1208,-0.1152,-0.1125,-0.1073,-0.102,-0.0975,-0.0873,-0.0796,-0.0718,-0.0672,-0.0627,-0.0534,-0.0523,-0.052,-0.0442,-0.0441,-0.064,-0.0678,-0.0642,-0.068,-0.0506,-0.0507,-0.0507,0,-0.1337,-0.1323,-0.1298,-0.1276,-0.1263,-0.1231,-0.1222,-0.1179,-0.1113,-0.1071,-0.0993,-0.0903,-0.0816,-0.0746,-0.0636,-0.0638,-0.058,-0.0521,-0.052,-0.0637,-0.0609,-0.0653,-0.0687,-0.0292,-0.0508,-0.0508,-0.0507,0,-0.1404,-0.1354,-0.1354,-0.1336,-0.1287,-0.1288,-0.1264,-0.1219,-0.1209,-0.1128,-0.1111,-0.0991,-0.0927,-0.0825,-0.0712,-0.0666,-0.0622,-0.0539,-0.0645,-0.0656,-0.0593,-0.0601,-0.0288,-0.0492,-0.0492,-0.0492,-0.0492,0,-0.142,-0.1415,-0.1392,-0.1388,-0.1414,-0.1357,-0.1373,-0.1338,-0.1292,-0.1293,-0.1162,-0.1141,-0.0941,-0.0884,-0.0767,-0.0752,-0.0672,-0.069,-0.0684,-0.0635,-0.0646,-0.0274,-0.0059,-0.0493,-0.0493,-0.0492,-0.0492,0,-0.1453,-0.1434,-0.1445,-0.1433,-0.1437,-0.1455,-0.1441,-0.1464,-0.1403,-0.1397,-0.1371,-0.1259,-0.1206,-0.1064,-0.092,-0.0863,-0.0666,-0.0811,-0.0807,-0.0805,-0.0572,-0.0369,-0.0301,-0.0203,-0.0935,-0.0939,-0.0943,0,-0.1448,-0.1459,-0.1495,-0.1528,-0.1514,-0.1536,-0.1568,-0.1523,-0.1537,-0.1486,-0.1495,-0.1441,-0.1433,-0.1336,-0.1211,-0.1117,-0.0806,-0.1034,-0.095,-0.0595,-0.0357,-0.0328,-0.0243,-0.0891,-0.0894,-0.0896,-0.0898,0,-0.1446,-0.147,-0.1492,-0.1589,-0.1634,-0.168,-0.1702,-0.173,-0.1691,-0.1705,-0.1722,-0.1717,-0.1641,-0.1547,-0.145,-0.1342,-0.081,-0.1093,-0.0661,-0.0282,-0.0282,-0.0173,-0.085,-0.092,-0.0918,-0.0916,-0.0915,-0.0914,-0.1448,-0.1483,-0.1552,-0.164,-0.171,-0.1796,-0.1843,-0.1899,-0.1955,-0.2007,-0.196,-0.1997,-0.174,-0.1621,-0.1456,-0.097,-0.1019,-0.075,-0.0534,-0.0542,-0.0442,-0.125,-0.1366,-0.1367,-0.1367,-0.1367,-0.1367,0,-0.1456,-0.151,-0.16,-0.171,-0.1807,-0.1831,-0.1922,-0.1994,-0.2105,-0.2202,-0.2269,-0.2025,-0.1751,-0.134,-0.073,-0.0374,-0.0281,-0.0107,0.0139,0.0198,-0.0416,-0.0398,-0.0385,-0.0386,-0.0386,-0.0387,-0.0387,-0.0387,-0.1465,-0.1548,-0.1615,-0.1776,-0.1847,-0.1981,-0.2035,-0.2172,-0.2258,-0.232,-0.2238,-0.2088,-0.107,-0.0213,0.0554,0.0584,0.0964,0.0826,0.1021,0.0892,0.0856,0.0822,0.0897,0.118,0.1182,0.156,0.1566,0.1571]}],[{"header":{"parameterUnit":"m.s-1","parameterCategory":2,"la1":30.2991,"la2":30.254,"lo1":-89.0895,"lo2":-89.0444,"dy":0.0017,"dx":0.0017,"nx":28,"ny":28,"refTime":"2023-08-04T03:00:00:Z","depth":"2","parameterNumber":2,"parameterNumberName":"U-component_of_CURRENTS"},"data":[0,0,0,0,0,0,0,0,0,0,0,0,0,0,0,0,0,0,0,0,0,0,0,0,0,0,0,0,0,0,0,0,0,0,0,0,0,0,0,0,0,0,0,0,0,0,0,0,0,0,0,0,0,0,0,0,0,0,-0.3404,-0.3403,0,-0.3304,-0.3302,-0.3301,-0.3218,-0.3218,-0.3217,-0.3216,-0.3065,-0.3062,-0.3059,0,0,0,0,0,0,0,0,0,0,0,0,0,-0.3453,-0.3453,-0.3404,-0.3403,-0.3402,-0.3304,-0.3302,-0.3301,-0.3218,-0.3218,-0.3217,-0.3216,-0.3066,-0.3063,-0.3059,0,0,0,0,0,0,0,0,0,0,0,0,0,-0.3399,-0.3453,-0.3404,-0.335,-0.3344,-0.3304,-0.3302,-0.33,-0.3219,-0.3218,-0.3217,-0.3216,-0.3068,-0.3063,-0.3058,-0.3049,0,0,-0.3043,-0.304,0,0,0,0,0,0,0,0,-0.3402,-0.3397,-0.3359,-0.3354,-0.3347,-0.3274,-0.3264,-0.3214,-0.3219,-0.3265,-0.3216,-0.3215,-0.3132,-0.3122,-0.3104,-0.3042,-0.3035,-0.3042,-0.3039,-0.3037,-0.3036,0,0,0,0,0,0,0,-0.3406,-0.34,-0.3363,-0.3358,-0.3351,-0.3306,-0.3298,-0.3254,-0.3204,-0.3261,-0.3255,-0.3247,-0.3128,-0.3109,-0.31,-0.3033,-0.3042,-0.3038,-0.3035,-0.3033,-0.2959,-0.296,0,0,0,0,0,0,-0.3427,-0.3405,-0.3366,-0.336,-0.3374,-0.3307,-0.3297,-0.3297,-0.3205,-0.3191,-0.3248,-0.3243,-0.3118,-0.3106,-0.3094,-0.3069,-0.3037,-0.3032,-0.3029,-0.2958,-0.296,-0.2961,0,0,0,0,0,0,-0.3428,-0.3425,-0.337,-0.338,-0.337,-0.3308,-0.3308,-0.3296,-0.3258,-0.3196,-0.318,-0.322,-0.3117,-0.3101,-0.3067,-0.3063,-0.303,-0.3026,-0.2957,-0.2959,-0.296,-0.3025,0,0,0,0,0,0,-0.343,-0.3426,-0.3432,-0.3382,-0.3371,-0.3376,-0.3309,-0.3295,-0.3256,-0.3249,-0.3167,-0.3153,-0.3115,-0.3075,-0.3062,-0.3055,-0.3022,-0.2956,-0.2958,-0.296,-0.3021,-0.3028,-0.3034,0,0,0,0,0,-0.3433,-0.3458,-0.3433,-0.3428,-0.3381,-0.3379,-0.337,-0.3319,-0.3256,-0.3271,-0.3205,-0.3155,-0.3078,-0.3072,-0.3057,-0.3048,-0.2955,-0.2957,-0.2959,-0.3018,-0.3027,-0.3034,0,0,0,0,0,0,-0.3481,-0.345,-0.3422,-0.3435,-0.3419,-0.3366,-0.3362,-0.3313,-0.3268,-0.3241,-0.3166,-0.3151,-0.3125,-0.3083,-0.3078,-0.3037,-0.3008,-0.3008,-0.3058,-0.3066,-0.3072,-0.3088,-0.3017,0,0,0,0,0,-0.3495,-0.3498,-0.347,-0.3475,-0.347,-0.3406,-0.3389,-0.3354,-0.3308,-0.3284,-0.322,-0.3158,-0.3126,-0.3093,-0.3065,-0.3032,-0.2957,-0.3019,-0.3026,-0.3032,-0.3037,-0.2919,-0.2914,-0.2968,-0.2968,-0.2968,0,0,-0.3504,-0.3493,-0.3488,-0.3485,-0.3453,-0.345,-0.3393,-0.3376,-0.3352,-0.3275,-0.3217,-0.3182,-0.3128,-0.3107,-0.3088,-0.3064,-0.2978,-0.3035,-0.304,-0.3041,-0.2921,-0.2915,-0.2909,-0.297,-0.297,-0.297,0,0,-0.3529,-0.3525,-0.3531,-0.3532,-0.3506,-0.3478,-0.3472,-0.3417,-0.3379,-0.3343,-0.3279,-0.3243,-0.3179,-0.3141,-0.3113,-0.3135,-0.3027,-0.3123,-0.3148,-0.3034,-0.3028,-0.3021,-0.2915,-0.2898,-0.3112,-0.3112,-0.3112,0,-0.3532,-0.3535,-0.3535,-0.3548,-0.3526,-0.3489,-0.3475,-0.3457,-0.3391,-0.3346,-0.3341,-0.3228,-0.3196,-0.3139,-0.3171,-0.3146,-0.3064,-0.3119,-0.3039,-0.3031,-0.3023,-0.2915,-0.2896,-0.3115,-0.3115,-0.3114,-0.3114,0,-0.3554,-0.3558,-0.3567,-0.3557,-0.3557,-0.3544,-0.3521,-0.3493,-0.3433,-0.3391,-0.3329,-0.3294,-0.3217,-0.3216,-0.3209,-0.3141,-0.3096,-0.3069,-0.3013,-0.3021,-0.2908,-0.2886,-0.312,-0.3119,-0.3118,-0.3117,0,0,-0.3492,-0.3563,-0.355,-0.3535,-0.3545,-0.3524,-0.3518,-0.3469,-0.3402,-0.3388,-0.329,-0.3299,-0.3261,-0.3231,-0.3198,-0.3131,-0.3031,-0.3092,-0.3084,-0.2977,-0.2768,-0.2725,-0.2697,-0.2974,-0.2971,-0.2969,-0.2709,0,-0.3469,-0.3498,-0.3534,-0.351,-0.3498,-0.3491,-0.3474,-0.3437,-0.339,-0.3307,-0.3279,-0.321,-0.3269,-0.3219,-0.3172,-0.3053,-0.2978,-0.3103,-0.2785,-0.2776,-0.2728,-0.2672,-0.248,-0.2231,-0.2687,-0.2684,-0.2681,0,-0.3423,-0.3443,-0.3448,-0.3439,-0.3427,-0.3428,-0.3337,-0.333,-0.3267,-0.3228,-0.3188,-0.3143,-0.3081,-0.3113,-0.2936,-0.3005,-0.291,-0.2831,-0.2816,-0.274,-0.2694,-0.2298,-0.2174,-0.2644,-0.2647,-0.265,-0.2653,0,-0.331,-0.3345,-0.3337,-0.3342,-0.3361,-0.3337,-0.3336,-0.3291,-0.323,-0.3178,-0.3097,-0.3041,-0.2953,-0.2863,-0.2786,-0.2817,-0.2565,-0.2557,-0.2427,-0.2422,-0.2179,-0.2159,-0.2412,-0.2412,-0.2413,-0.2414,-0.2415,0,-0.3233,-0.3202,-0.329,-0.3278,-0.3215,-0.327,-0.3181,-0.3182,-0.3125,-0.3008,-0.3055,-0.292,-0.2883,-0.2754,-0.2707,-0.2512,-0.249,-0.2413,-0.2343,-0.2201,-0.2186,-0.2494,-0.2507,-0.2404,-0.2406,-0.2408,-0.241,0,-0.3091,-0.3165,-0.314,-0.3176,-0.3171,-0.3131,-0.3099,-0.3014,-0.3025,-0.2864,-0.2838,-0.2765,-0.2618,-0.259,-0.2401,-0.2358,-0.2212,-0.2156,-0.2019,-0.194,-0.2153,-0.2173,-0.1912,-0.1908,-0.1905,-0.1902,-0.19,0,-0.3016,-0.301,-0.3045,-0.3014,-0.303,-0.2989,-0.2925,-0.295,-0.2855,-0.2732,-0.261,-0.2487,-0.2335,-0.2124,-0.2045,-0.192,-0.207,-0.1682,-0.1726,-0.2139,-0.2097,-0.2122,-0.2146,-0.1408,-0.1402,-0.1397,-0.1393,0,-0.2847,-0.2887,-0.288,-0.2836,-0.2787,-0.2713,-0.2649,-0.2552,-0.2522,-0.244,-0.2255,-0.2144,-0.1949,-0.1741,-0.1667,-0.1576,-0.1703,-0.1574,-0.1947,-0.1617,-0.1656,-0.162,-0.1659,-0.1348,-0.1353,-0.1356,-0.1359,-0.136,-0.2693,-0.2666,-0.2674,-0.259,-0.2546,-0.2411,-0.227,-0.2236,-0.2106,-0.1967,-0.1958,-0.1785,-0.1615,-0.1402,-0.1293,-0.1245,-0.1359,-0.1287,-0.1304,-0.1326,-0.1366,-0.1403,-0.1053,-0.1055,-0.1057,-0.1059,-0.1061,0,-0.2445,-0.2454,-0.2402,-0.2295,-0.2136,-0.221,-0.2026,-0.1873,-0.1704,-0.1762,-0.1691,-0.1328,-0.1168,-0.108,-0.0908,-0.0839,-0.0841,-0.0814,-0.0823,-0.0864,-0.0902,-0.0926,-0.0492,-0.0491,-0.049,-0.049,0,0,-0.2313,-0.2192,-0.2172,-0.1876,-0.1818,-0.1557,-0.1425,-0.1343,-0.1329,-0.1271,-0.125,-0.1314,-0.1115,-0.0867,-0.0744,-0.064,-0.0789,-0.0595,-0.1041,-0.1104,-0.1143,-0.1137,-0.1215,0,0,0,0,0]},{"header":{"parameterUnit":"m.s-1","parameterCategory":2,"la1":30.2991,"la2":30.254,"lo1":-89.0895,"lo2":-89.0444,"dy":0.0017,"dx":0.0017,"nx":28,"ny":28,"refTime":"2023-08-04T03:00:00:Z","depth":"2","parameterNumber":3,"parameterNumberName":"V-component_of_CURRENTS"},"data":[0,0,0,0,0,0,0,0,0,0,0,0,0,0,0,0,0,0,0,0,0,0,0,0,0,0,0,0,0,0,0,0,0,0,0,0,0,0,0,0,0,0,0,0,0,0,0,0,0,0,0,0,0,0,0,0,0,0,0.0119,0.0119,0,0.0104,0.0104,0.0104,0.0063,0.0062,0.0061,0.006,0.011,0.0112,0.0114,0,0,0,0,0,0,0,0,0,0,0,0,0,0.0324,0.032,0.0119,0.0118,0.0118,0.0104,0.0104,0.0104,0.0063,0.0062,0.006,0.0059,0.0109,0.0112,0.0115,0,0,0,0,0,0,0,0,0,0,0,0,0,0.0267,0.0318,0.0119,0.0093,0.0091,0.0104,0.0104,0.0104,0.0064,0.0062,0.006,0.0058,0.0108,0.0111,0.0115,0.0174,0,0,0.0126,0.0128,0,0,0,0,0,0,0,0,0.027,0.026,0.0098,0.0095,0.0092,0.008,0.0194,0.0129,0.0064,0.0078,0.006,0.0057,0.0105,0.0109,0.0114,0.0176,0.0178,0.0127,0.0129,0.013,0.0131,0,0,0,0,0,0,0,0.0274,0.0262,0.0116,0.0097,0.0094,0.0155,0.0143,0.0183,0.0106,0.0076,0.0072,0.0066,0.0104,0.011,0.0115,0.0179,0.0127,0.013,0.0132,0.0133,0.0264,0.0265,0,0,0,0,0,0,0.0259,0.0264,0.0117,0.0116,0.0175,0.0151,0.0139,0.0089,0.0104,0.0102,0.0067,0.0064,0.0105,0.0111,0.0117,0.013,0.013,0.0134,0.0136,0.0263,0.0264,0.0266,0,0,0,0,0,0,0.0263,0.0244,0.0117,0.019,0.0178,0.0148,0.0094,0.0089,0.0054,0.0095,0.0096,0.0031,0.0104,0.0112,0.0135,0.0134,0.0136,0.0139,0.0261,0.0263,0.0265,0.0195,0,0,0,0,0,0,0.0268,0.0245,0.0205,0.0187,0.0173,0.0113,0.0095,0.009,0.0054,0.0048,0.0066,0.0071,0.0103,0.0129,0.0138,0.0139,0.0142,0.026,0.0262,0.0264,0.0196,0.0194,0.0193,0,0,0,0,0,0.0275,0.0233,0.0202,0.0185,0.0116,0.0112,0.0112,0.009,0.0053,0.0049,0.0058,0.0068,0.0151,0.0133,0.0143,0.0145,0.0258,0.0261,0.0264,0.0196,0.0194,0.0193,0,0,0,0,0,0,0.031,0.0224,0.019,0.0123,0.011,0.0104,0.0092,0.0068,0.0069,0.0051,0.0079,0.0087,0.0116,0.0145,0.0124,0.0196,0.0209,0.0215,0.0154,0.0153,0.0152,0.0171,0.0145,0,0,0,0,0,0.0295,0.0231,0.0186,0.0137,0.0119,0.0095,0.0085,0.0065,0.0064,0.0057,0.0068,0.0097,0.0146,0.0154,0.0205,0.0232,0.031,0.0246,0.0245,0.0243,0.027,0.0408,0.0422,0.0275,0.0275,0.0275,0,0,0.03,0.0243,0.0209,0.0141,0.0121,0.0102,0.0084,0.0056,0.005,0.0069,0.006,0.0093,0.0156,0.0195,0.0209,0.0208,0.0318,0.0246,0.0244,0.0273,0.0413,0.0427,0.044,0.0277,0.0276,0.0276,0,0,0.0287,0.0218,0.0161,0.0143,0.0095,0.0094,0.0072,0.0042,0.0034,0.0039,0.0062,0.0099,0.0136,0.0198,0.0232,0.026,0.0315,0.0254,0.0248,0.0381,0.0394,0.0407,0.0487,0.0508,0.0242,0.0242,0.0241,0,0.0292,0.0198,0.0159,0.0113,0.0097,0.0079,0.0047,0.0055,0.0042,0.0059,0.0029,0.0129,0.0157,0.0249,0.0242,0.0258,0.032,0.0237,0.0379,0.0394,0.0408,0.0487,0.0511,0.0239,0.0239,0.0239,0.0239,0,0.0228,0.017,0.0146,0.0069,0.0067,0.0037,0.0038,0.0037,0.0018,0.0038,0.0099,0.015,0.0213,0.0221,0.0228,0.0338,0.0341,0.0366,0.0376,0.0419,0.0499,0.0525,0.0234,0.0235,0.0236,0.0237,0,0,0.0171,0.0108,0.0089,0.0067,0.003,0.0026,0.0036,0.0056,0.0082,0.009,0.0149,0.0207,0.0226,0.0271,0.0295,0.0388,0.0505,0.0393,0.0402,0.046,0.0761,0.0665,0.0684,0.0543,0.0548,0.0552,0.0761,0,0.0118,0.0034,0.0025,-0.0008,-0.0046,-0.0022,0.0008,0.0042,0.0076,0.0143,0.0217,0.0281,0.025,0.027,0.0361,0.0484,0.0577,0.0445,0.0724,0.0733,0.0634,0.0714,0.0672,0.0847,0.0787,0.0791,0.0794,0,0.0024,-0.0014,-0.0082,-0.005,-0.0061,-0.0063,-0.001,0.0017,0.0132,0.0166,0.0246,0.031,0.0428,0.0407,0.0641,0.0548,0.0648,0.0741,0.0752,0.0716,0.0687,0.0807,0.0897,0.0839,0.0835,0.0832,0.0829,0,-0.0045,-0.0079,-0.0135,-0.0144,-0.012,-0.0115,-0.0083,0.0006,0.0058,0.0179,0.0242,0.0389,0.0466,0.0629,0.0721,0.0714,0.098,0.1016,0.1037,0.103,0.1081,0.1069,0.1227,0.1227,0.1226,0.1226,0.1225,0,-0.013,-0.0158,-0.0175,-0.0213,-0.0217,-0.0172,-0.0131,-0.0079,0.0046,0.0127,0.0235,0.0314,0.0528,0.0667,0.0777,0.0941,0.1024,0.1069,0.1099,0.1047,0.103,0.1097,0.1079,0.1233,0.1232,0.123,0.1229,0,-0.0211,-0.0234,-0.0281,-0.0277,-0.0271,-0.0283,-0.0188,-0.0118,-0.0024,0.0092,0.0128,0.0306,0.0458,0.0629,0.0896,0.1,0.1175,0.1205,0.1079,0.109,0.1141,0.1118,0.1355,0.1353,0.1352,0.1352,0.1351,0,-0.0257,-0.0312,-0.0355,-0.0372,-0.0383,-0.0365,-0.0315,-0.0197,-0.0111,0.0056,0.0122,0.0284,0.038,0.0689,0.0901,0.1122,0.1111,0.1215,0.1222,0.116,0.1166,0.1144,0.1122,0.1266,0.1265,0.1264,0.1263,0,-0.0329,-0.0371,-0.0407,-0.0454,-0.0445,-0.039,-0.0317,-0.027,-0.0113,-0.0038,0.0058,0.0137,0.0422,0.0645,0.0907,0.102,0.1179,0.12,0.1248,0.119,0.1081,0.1083,0.1066,0.1253,0.1254,0.1255,0.1256,0.1256,-0.0365,-0.0415,-0.047,-0.0495,-0.0475,-0.0407,-0.0392,-0.0276,-0.0195,-0.0012,0.0044,0.0238,0.0425,0.0836,0.0899,0.1036,0.1141,0.1223,0.1227,0.1232,0.1134,0.1025,0.1168,0.1168,0.1169,0.1169,0.1169,0,-0.0362,-0.0426,-0.0473,-0.0486,-0.0452,-0.0436,-0.0365,-0.0325,-0.0274,0.0026,0.0145,0.0323,0.0583,0.0738,0.098,0.1095,0.1086,0.1046,0.1054,0.1066,0.1077,0.0969,0.096,0.0959,0.0957,0.0956,0,0,-0.0353,-0.041,-0.0437,-0.0428,-0.0446,-0.0442,-0.0435,-0.0375,-0.0193,0.0015,0.026,0.0616,0.0751,0.0847,0.0907,0.097,0.0984,0.0931,0.1112,0.1131,0.1138,0.1208,0.1059,0,0,0,0,0]}],[{"header":{"parameterUnit":"m.s-1","parameterCategory":2,"la1":30.2991,"la2":30.254,"lo1":-89.0895,"lo2":-89.0444,"dy":0.0017,"dx":0.0017,"nx":28,"ny":28,"refTime":"2023-08-04T03:00:00:Z","depth":"4","parameterNumber":2,"parameterNumberName":"U-component_of_CURRENTS"},"data":[0,0,0,0,0,0,0,0,0,0,0,0,0,0,0,0,0,0,0,0,0,0,0,0,0,0,0,0,0,0,0,0,0,0,0,0,0,0,0,0,0,0,0,0,0,0,0,0,0,0,0,0,0,0,0,0,0,0,-0.1136,-0.1137,0,-0.1205,-0.1206,-0.1206,-0.1228,-0.1228,-0.1228,-0.1228,-0.1304,-0.1306,-0.1308,0,0,0,0,0,0,0,0,0,0,0,0,0,-0.103,-0.1031,-0.1136,-0.1137,-0.1138,-0.1205,-0.1206,-0.1206,-0.1228,-0.1228,-0.1228,-0.1228,-0.1303,-0.1306,-0.1308,0,0,0,0,0,0,0,0,0,0,0,0,0,-0.1082,-0.1032,-0.1135,-0.116,-0.1163,-0.1205,-0.1206,-0.1206,-0.1228,-0.1228,-0.1228,-0.1228,-0.1303,-0.1306,-0.1309,-0.1327,0,0,-0.1318,-0.1319,0,0,0,0,0,0,0,0,-0.1079,-0.1085,-0.1155,-0.1158,-0.1162,-0.1211,-0.1196,-0.1248,-0.1228,-0.12,-0.1228,-0.1228,-0.1276,-0.1281,-0.1289,-0.133,-0.1333,-0.1318,-0.132,-0.1321,-0.1322,0,0,0,0,0,0,0,-0.1075,-0.1082,-0.1159,-0.1156,-0.1161,-0.117,-0.1177,-0.1206,-0.1234,-0.1202,-0.1205,-0.1218,-0.1277,-0.1286,-0.1291,-0.1335,-0.1318,-0.1321,-0.1322,-0.1324,-0.1469,-0.1471,0,0,0,0,0,0,-0.1074,-0.1079,-0.1157,-0.1162,-0.1124,-0.1172,-0.118,-0.1192,-0.1234,-0.1241,-0.1218,-0.1219,-0.1281,-0.1287,-0.1294,-0.1398,-0.1321,-0.1324,-0.1326,-0.1467,-0.1469,-0.1472,0,0,0,0,0,0,-0.1071,-0.108,-0.1155,-0.1125,-0.1135,-0.1174,-0.1188,-0.1194,-0.1233,-0.1247,-0.1253,-0.1255,-0.1281,-0.129,-0.1339,-0.1398,-0.1325,-0.1328,-0.1465,-0.1468,-0.1471,-0.1556,0,0,0,0,0,0,-0.1068,-0.1078,-0.1095,-0.1125,-0.1137,-0.1201,-0.1189,-0.1195,-0.1241,-0.1243,-0.128,-0.1285,-0.1282,-0.1335,-0.1342,-0.1401,-0.133,-0.1462,-0.1466,-0.147,-0.155,-0.1561,-0.1571,0,0,0,0,0,-0.1064,-0.1076,-0.1096,-0.1106,-0.1156,-0.1203,-0.1211,-0.1235,-0.1243,-0.1268,-0.1288,-0.1286,-0.1365,-0.1339,-0.1347,-0.1408,-0.146,-0.1465,-0.1469,-0.1546,-0.1559,-0.1571,0,0,0,0,0,0,-0.1025,-0.1081,-0.1103,-0.1129,-0.1178,-0.1209,-0.1231,-0.1257,-0.1292,-0.1299,-0.1307,-0.1314,-0.1379,-0.1381,-0.1352,-0.1461,-0.1415,-0.1421,-0.147,-0.1483,-0.1493,-0.1475,-0.1333,0,0,0,0,0,-0.103,-0.1062,-0.1116,-0.114,-0.1166,-0.1208,-0.1234,-0.1261,-0.1293,-0.1311,-0.1351,-0.138,-0.1401,-0.1431,-0.1452,-0.1515,-0.147,-0.1561,-0.1572,-0.158,-0.1572,-0.1562,-0.157,-0.1487,-0.1487,-0.1487,0,0,-0.1015,-0.1057,-0.1071,-0.1137,-0.117,-0.1201,-0.1223,-0.1275,-0.131,-0.1314,-0.1387,-0.1419,-0.1422,-0.1485,-0.1517,-0.15,-0.1576,-0.1586,-0.1594,-0.158,-0.1567,-0.1575,-0.1582,-0.149,-0.1489,-0.1489,0,0,-0.0996,-0.1049,-0.1067,-0.11,-0.1171,-0.1218,-0.1243,-0.1317,-0.1362,-0.1432,-0.1439,-0.1487,-0.1559,-0.1561,-0.1565,-0.1642,-0.1623,-0.1694,-0.1745,-0.1737,-0.1743,-0.1748,-0.1676,-0.1674,-0.1709,-0.171,-0.171,0,-0.0993,-0.1006,-0.1079,-0.1093,-0.1118,-0.1226,-0.1241,-0.1305,-0.1396,-0.1443,-0.1464,-0.1568,-0.157,-0.1618,-0.1654,-0.1661,-0.1655,-0.1698,-0.1748,-0.1752,-0.1756,-0.1681,-0.1677,-0.1714,-0.1714,-0.1713,-0.1713,0,-0.0953,-0.0982,-0.0995,-0.1058,-0.1105,-0.1141,-0.1236,-0.1332,-0.142,-0.1481,-0.159,-0.1618,-0.1676,-0.1707,-0.1704,-0.1765,-0.1749,-0.1753,-0.1712,-0.1769,-0.1686,-0.1681,-0.1721,-0.1719,-0.1718,-0.1717,0,0,-0.0928,-0.0964,-0.0975,-0.0977,-0.1086,-0.1113,-0.1222,-0.1336,-0.1383,-0.1536,-0.1585,-0.1679,-0.1748,-0.1756,-0.1795,-0.1809,-0.181,-0.1825,-0.1822,-0.1741,-0.1779,-0.1675,-0.1657,-0.1864,-0.1864,-0.1864,-0.1702,0,-0.0893,-0.0913,-0.0933,-0.095,-0.0982,-0.1081,-0.1154,-0.1275,-0.1391,-0.1479,-0.1592,-0.1651,-0.1754,-0.1788,-0.1838,-0.1801,-0.1808,-0.1851,-0.1745,-0.1739,-0.1632,-0.1652,-0.1866,-0.1698,-0.1696,-0.1695,-0.1695,0,-0.0851,-0.0889,-0.0906,-0.092,-0.0932,-0.0964,-0.1098,-0.1169,-0.1338,-0.141,-0.1559,-0.1639,-0.1726,-0.1773,-0.1807,-0.1857,-0.1837,-0.181,-0.1803,-0.167,-0.1626,-0.1636,-0.1684,-0.1685,-0.1685,-0.1686,-0.1687,0,-0.0834,-0.0846,-0.0868,-0.087,-0.0933,-0.0968,-0.1037,-0.1194,-0.1242,-0.1397,-0.1431,-0.1578,-0.161,-0.1678,-0.1717,-0.1766,-0.1694,-0.1718,-0.1598,-0.1587,-0.169,-0.1687,-0.1712,-0.1712,-0.1712,-0.1713,-0.1713,0,-0.079,-0.0789,-0.0865,-0.0863,-0.089,-0.0952,-0.0991,-0.1086,-0.119,-0.1227,-0.1419,-0.1455,-0.1601,-0.1622,-0.1669,-0.1616,-0.1662,-0.1587,-0.1548,-0.1727,-0.173,-0.1683,-0.1682,-0.1706,-0.1708,-0.1709,-0.171,0,-0.0734,-0.079,-0.0785,-0.0848,-0.0882,-0.0911,-0.0959,-0.0971,-0.1103,-0.1152,-0.1204,-0.1336,-0.1368,-0.1463,-0.1466,-0.1488,-0.1462,-0.1429,-0.1564,-0.1537,-0.1361,-0.1367,-0.1244,-0.1239,-0.1235,-0.1231,-0.1228,0,-0.0688,-0.0716,-0.0766,-0.0761,-0.0779,-0.0837,-0.087,-0.0972,-0.0987,-0.1083,-0.1087,-0.1142,-0.1237,-0.1159,-0.1265,-0.1281,-0.131,-0.1261,-0.1377,-0.1343,-0.1317,-0.1329,-0.134,-0.1222,-0.1221,-0.122,-0.1219,0,-0.0617,-0.0654,-0.0647,-0.0679,-0.0695,-0.0697,-0.076,-0.0775,-0.0887,-0.0937,-0.0972,-0.1022,-0.101,-0.1075,-0.1079,-0.1121,-0.1281,-0.1219,-0.1229,-0.1338,-0.1315,-0.1296,-0.1312,-0.1204,-0.1206,-0.1208,-0.1209,0,-0.0559,-0.0539,-0.0572,-0.0568,-0.0571,-0.0607,-0.0645,-0.0675,-0.0733,-0.0856,-0.0838,-0.0928,-0.0974,-0.0983,-0.1008,-0.1019,-0.1031,-0.1038,-0.1058,-0.1074,-0.1109,-0.1061,-0.082,0,0,0,0,0,-0.0518,-0.05,-0.0462,-0.0479,-0.0448,-0.0499,-0.0573,-0.0623,-0.0736,-0.0723,-0.0797,-0.0812,-0.0849,-0.0891,-0.0874,-0.0937,-0.1038,-0.0912,-0.1057,-0.1125,-0.1142,-0.1208,0,0,0,0,0,0,-0.05,-0.0474,-0.0456,-0.0414,-0.0393,-0.0424,-0.0495,-0.0574,-0.0599,-0.0684,-0.0712,-0.0738,-0.079,-0.0833,-0.0843,-0.0853,-0.0927,-0.0944,-0.0942,-0.1116,-0.1131,-0.1144,-0.1218,0,0,0,0,0]},{"header":{"parameterUnit":"m.s-1","parameterCategory":2,"la1":30.2991,"la2":30.254,"lo1":-89.0895,"lo2":-89.0444,"dy":0.0017,"dx":0.0017,"nx":28,"ny":28,"refTime":"2023-08-04T03:00:00:Z","depth":"4","parameterNumber":3,"parameterNumberName":"V-component_of_CURRENTS"},"data":[0,0,0,0,0,0,0,0,0,0,0,0,0,0,0,0,0,0,0,0,0,0,0,0,0,0,0,0,0,0,0,0,0,0,0,0,0,0,0,0,0,0,0,0,0,0,0,0,0,0,0,0,0,0,0,0,0,0,-0.0209,-0.0208,0,-0.0228,-0.0229,-0.023,-0.0193,-0.0191,-0.0189,-0.0187,-0.021,-0.0212,-0.0214,0,0,0,0,0,0,0,0,0,0,0,0,0,-0.0171,-0.0173,-0.0209,-0.0208,-0.0208,-0.0228,-0.0229,-0.023,-0.0193,-0.0191,-0.0189,-0.0187,-0.0209,-0.0212,-0.0214,0,0,0,0,0,0,0,0,0,0,0,0,0,-0.0195,-0.0173,-0.0209,-0.0188,-0.0185,-0.0228,-0.0229,-0.023,-0.0193,-0.0191,-0.0188,-0.0186,-0.0208,-0.0211,-0.0215,-0.0289,0,0,-0.0225,-0.0226,0,0,0,0,0,0,0,0,-0.0194,-0.0197,-0.0191,-0.0189,-0.0187,-0.02,-0.0224,-0.0248,-0.0194,-0.0197,-0.0187,-0.0184,-0.0205,-0.0208,-0.0227,-0.029,-0.0291,-0.0225,-0.0227,-0.0229,-0.023,0,0,0,0,0,0,0,-0.0192,-0.0196,-0.0223,-0.0191,-0.0188,-0.0188,-0.0188,-0.0229,-0.0221,-0.0196,-0.0192,-0.0186,-0.0204,-0.0223,-0.0227,-0.0292,-0.0225,-0.0228,-0.023,-0.0232,-0.0386,-0.0388,0,0,0,0,0,0,-0.0179,-0.0195,-0.0222,-0.0223,-0.0177,-0.019,-0.0191,-0.0203,-0.022,-0.0218,-0.0188,-0.0184,-0.0219,-0.0223,-0.0227,-0.0321,-0.0229,-0.0232,-0.0234,-0.0384,-0.0386,-0.0389,0,0,0,0,0,0,-0.0179,-0.0182,-0.0221,-0.0203,-0.0207,-0.0192,-0.0207,-0.0205,-0.0216,-0.0212,-0.0211,-0.0198,-0.0217,-0.0222,-0.0273,-0.032,-0.0234,-0.0237,-0.0382,-0.0385,-0.0388,-0.0505,0,0,0,0,0,0,-0.0178,-0.0183,-0.0196,-0.0203,-0.0207,-0.0254,-0.0209,-0.0207,-0.0213,-0.0208,-0.0221,-0.0221,-0.0215,-0.0269,-0.0277,-0.0324,-0.0239,-0.0379,-0.0383,-0.0387,-0.0499,-0.0512,-0.0523,0,0,0,0,0,-0.0177,-0.0211,-0.0197,-0.02,-0.0224,-0.0255,-0.026,-0.0243,-0.0216,-0.024,-0.0248,-0.022,-0.0298,-0.0274,-0.0283,-0.0332,-0.0377,-0.0382,-0.0386,-0.0493,-0.0509,-0.0523,0,0,0,0,0,0,-0.0214,-0.021,-0.0195,-0.0229,-0.0239,-0.0246,-0.0267,-0.0252,-0.028,-0.0277,-0.0262,-0.0266,-0.0329,-0.0315,-0.0289,-0.0384,-0.0327,-0.0334,-0.0405,-0.0421,-0.0433,-0.044,-0.0242,0,0,0,0,0,-0.0226,-0.0244,-0.0242,-0.0272,-0.0277,-0.0273,-0.0283,-0.0277,-0.0294,-0.0301,-0.0308,-0.0322,-0.0362,-0.0375,-0.0406,-0.0468,-0.0392,-0.0498,-0.051,-0.0521,-0.0532,-0.0466,-0.0472,-0.0404,-0.0404,-0.0404,0,0,-0.0249,-0.0248,-0.0259,-0.0279,-0.0286,-0.0324,-0.0275,-0.0305,-0.0338,-0.0305,-0.0362,-0.0377,-0.039,-0.0459,-0.0484,-0.0448,-0.0494,-0.0527,-0.0536,-0.0542,-0.0471,-0.0477,-0.0483,-0.0407,-0.0407,-0.0406,0,0,-0.0309,-0.0305,-0.0339,-0.0356,-0.0367,-0.0369,-0.0376,-0.0392,-0.0398,-0.0465,-0.0445,-0.0486,-0.0542,-0.0558,-0.0574,-0.0674,-0.0569,-0.0675,-0.0741,-0.0677,-0.0681,-0.0684,-0.0559,-0.055,-0.0671,-0.0672,-0.0672,0,-0.0332,-0.0375,-0.0358,-0.0401,-0.0419,-0.0391,-0.0442,-0.0461,-0.0492,-0.0503,-0.0496,-0.0577,-0.0595,-0.0661,-0.0704,-0.0704,-0.0618,-0.0686,-0.069,-0.0692,-0.0693,-0.0564,-0.0553,-0.0678,-0.0677,-0.0677,-0.0676,0,-0.0415,-0.0453,-0.0481,-0.0516,-0.0541,-0.0583,-0.0592,-0.061,-0.0614,-0.0628,-0.0693,-0.0726,-0.0752,-0.0781,-0.0789,-0.0818,-0.0735,-0.0718,-0.0649,-0.0707,-0.0567,-0.0553,-0.0687,-0.0685,-0.0683,-0.0681,0,0,-0.0444,-0.0522,-0.0528,-0.055,-0.0603,-0.0617,-0.068,-0.0711,-0.0718,-0.0775,-0.0799,-0.0906,-0.0887,-0.0904,-0.0901,-0.0881,-0.0825,-0.0814,-0.0808,-0.0682,-0.0621,-0.05,-0.0471,-0.0796,-0.0795,-0.0794,-0.0506,0,-0.0506,-0.0596,-0.0627,-0.0702,-0.074,-0.0742,-0.0794,-0.0818,-0.083,-0.0845,-0.0878,-0.0918,-0.0939,-0.095,-0.0938,-0.086,-0.0799,-0.0901,-0.0591,-0.0581,-0.0461,-0.0457,-0.0792,-0.0494,-0.0491,-0.0489,-0.0487,0,-0.0558,-0.0609,-0.0706,-0.076,-0.0776,-0.0827,-0.0846,-0.0892,-0.0913,-0.0925,-0.0958,-0.095,-0.0965,-0.096,-0.0834,-0.0887,-0.0768,-0.0699,-0.0685,-0.0527,-0.0436,-0.0434,-0.046,-0.0462,-0.0464,-0.0466,-0.0467,0,-0.054,-0.0643,-0.0713,-0.0742,-0.082,-0.0853,-0.0888,-0.0922,-0.0932,-0.0963,-0.0951,-0.0961,-0.0927,-0.084,-0.0703,-0.0752,-0.0506,-0.0535,-0.0302,-0.0287,-0.043,-0.043,-0.0416,-0.0416,-0.0417,-0.0418,-0.0418,0,-0.0569,-0.0618,-0.0709,-0.0744,-0.0808,-0.0861,-0.09,-0.0937,-0.0959,-0.0947,-0.0984,-0.0938,-0.0894,-0.0749,-0.0655,-0.0404,-0.0438,-0.0298,-0.0215,-0.048,-0.049,-0.0415,-0.0419,-0.0407,-0.0409,-0.0411,-0.0413,0,-0.0549,-0.0616,-0.0686,-0.0778,-0.0809,-0.0852,-0.0909,-0.091,-0.0948,-0.092,-0.0925,-0.0875,-0.069,-0.0575,-0.0376,-0.0289,-0.0104,0.0006,-0.0221,-0.0157,0.0063,0.0049,0.0278,0.0285,0.029,0.0295,0.0298,0,-0.0556,-0.0594,-0.0695,-0.0726,-0.078,-0.0837,-0.0863,-0.0917,-0.0904,-0.0852,-0.0819,-0.0659,-0.0592,-0.0192,-0.012,0.0137,0.0148,0.0264,0.0064,0.0071,0.013,0.0107,0.0086,0.0307,0.0309,0.031,0.0311,0,-0.0563,-0.0598,-0.065,-0.0715,-0.0759,-0.0794,-0.0831,-0.0803,-0.0812,-0.0822,-0.0652,-0.05,-0.0258,-0.0089,0.0144,0.029,0.0169,0.032,0.0306,0.0119,0.0109,0.0156,0.013,0.033,0.0328,0.0326,0.0325,0,-0.056,-0.0593,-0.065,-0.0698,-0.0742,-0.0753,-0.0766,-0.0704,-0.0689,-0.0619,-0.0533,-0.0355,-0.0261,0.0004,0.0198,0.0373,0.0363,0.0364,0.0347,0.0327,0.0212,0.0198,0.0538,0,0,0,0,0,-0.0559,-0.0588,-0.0625,-0.0692,-0.0717,-0.0752,-0.0742,-0.0734,-0.0702,-0.0549,-0.0539,-0.0313,-0.0021,0.007,0.0278,0.0244,0.0357,0.0487,0.034,0.0436,0.0414,0.0273,0,0,0,0,0,0,-0.0565,-0.0605,-0.0625,-0.0663,-0.0691,-0.0733,-0.0719,-0.0694,-0.0597,-0.0534,-0.0371,-0.0286,-0.0011,-0.014,0.0268,0.0315,0.0248,0.0611,0.0616,0.0448,0.0428,0.0411,0.0259,0,0,0,0,0]}]]